Time,TemperatureF,DewpointF,PressureIn,WindDirection,WindDirectionDegrees,WindSpeedMPH,WindSpeedGustMPH,Humidity,HourlyPrecipIn,Conditions,Clouds,dailyrainin,SoftwareType,DateUTC
2013-01-04 00:02:00,4.1,-99.9,25.34,North,-999,0.0,0.0,-999,0.00,,,-99.99,FreeWX 2.04,2013-01-04 07:02:00,
2013-01-04 00:07:00,3.2,-99.9,25.34,North,-999,0.0,0.0,-999,0.00,,,-99.99,FreeWX 2.04,2013-01-04 07:07:00,
2013-01-04 00:12:00,3.0,-99.9,25.34,North,-999,0.0,0.0,-999,0.00,,,-99.99,FreeWX 2.04,2013-01-04 07:12:00,
2013-01-04 00:17:00,2.7,-99.9,25.34,North,-999,0.0,0.0,-999,0.00,,,-99.99,FreeWX 2.04,2013-01-04 07:17:00,
2013-01-04 00:22:00,1.6,-99.9,25.34,North,-999,0.0,0.0,-999,0.00,,,-99.99,FreeWX 2.04,2013-01-04 07:22:00,
2013-01-04 00:27:00,1.6,-99.9,25.34,North,-999,0.0,0.0,-999,0.00,,,-99.99,FreeWX 2.04,2013-01-04 07:27:00,
2013-01-04 00:32:00,2.7,-99.9,25.34,North,-999,0.0,0.0,-999,0.00,,,-99.99,FreeWX 2.04,2013-01-04 07:32:00,
2013-01-04 00:37:00,3.4,-99.9,25.34,North,-999,0.0,0.0,-999,0.00,,,-99.99,FreeWX 2.04,2013-01-04 07:37:00,
2013-01-04 00:42:00,4.3,-99.9,25.34,North,-999,0.0,0.0,-999,0.00,,,-99.99,FreeWX 2.04,2013-01-04 07:42:00,
2013-01-04 00:47:00,4.5,-99.9,25.34,North,-999,0.0,0.0,-999,0.00,,,-99.99,FreeWX 2.04,2013-01-04 07:47:00,
2013-01-04 00:52:00,3.9,-99.9,25.34,North,-999,0.0,0.0,-999,0.00,,,-99.99,FreeWX 2.04,2013-01-04 07:52:00,
2013-01-04 00:57:00,3.2,-99.9,25.34,North,-999,0.0,0.0,-999,0.00,,,-99.99,FreeWX 2.04,2013-01-04 07:57:00,
2013-01-04 01:02:00,2.5,-99.9,25.34,North,-999,0.0,0.0,-999,0.00,,,-99.99,FreeWX 2.04,2013-01-04 08:02:00,
2013-01-04 01:08:00,1.0,-99.9,25.34,North,-999,0.0,0.0,-999,0.00,,,-99.99,FreeWX 2.04,2013-01-04 08:08:00,
2013-01-04 01:13:00,2.1,-99.9,25.34,North,-999,0.0,0.0,-999,0.00,,,-99.99,FreeWX 2.04,2013-01-04 08:13:00,
2013-01-04 01:18:00,3.0,-99.9,25.34,North,-999,0.0,4.5,-999,0.00,,,-99.99,FreeWX 2.04,2013-01-04 08:18:00,
2013-01-04 01:23:00,2.3,-99.9,25.34,North,-999,0.0,0.0,-999,0.00,,,-99.99,FreeWX 2.04,2013-01-04 08:23:00,
2013-01-04 01:28:00,1.2,-99.9,25.34,North,-999,0.0,0.0,-999,0.00,,,-99.99,FreeWX 2.04,2013-01-04 08:28:00,
2013-01-04 01:33:00,1.6,-99.9,25.34,North,-999,0.0,0.0,-999,0.00,,,-99.99,FreeWX 2.04,2013-01-04 08:33:00,
2013-01-04 01:38:00,2.3,-99.9,25.34,North,-999,0.0,0.0,-999,0.00,,,-99.99,FreeWX 2.04,2013-01-04 08:38:00,
2013-01-04 01:43:00,2.3,-99.9,25.34,North,-999,0.0,0.0,-999,0.00,,,-99.99,FreeWX 2.04,2013-01-04 08:43:00,
2013-01-04 01:48:00,3.4,-99.9,25.34,North,-999,0.0,0.0,-999,0.00,,,-99.99,FreeWX 2.04,2013-01-04 08:48:00,
2013-01-04 01:53:00,3.0,-99.9,25.34,North,-999,0.0,0.0,-999,0.00,,,-99.99,FreeWX 2.04,2013-01-04 08:53:00,
2013-01-04 01:58:00,2.1,-99.9,25.34,North,-999,0.0,0.0,-999,0.00,,,-99.99,FreeWX 2.04,2013-01-04 08:58:00,
2013-01-04 02:03:00,1.6,-99.9,25.34,North,-999,0.0,0.0,-999,0.00,,,-99.99,FreeWX 2.04,2013-01-04 09:03:00,
2013-01-04 02:08:00,1.6,-99.9,25.34,North,-999,0.0,0.0,-999,0.00,,,-99.99,FreeWX 2.04,2013-01-04 09:08:00,
2013-01-04 02:13:00,1.4,-99.9,25.34,North,-999,0.0,0.0,-999,0.00,,,-99.99,FreeWX 2.04,2013-01-04 09:13:00,
2013-01-04 02:18:00,1.8,-99.9,25.34,North,-999,0.0,0.0,-999,0.00,,,-99.99,FreeWX 2.04,2013-01-04 09:18:00,
2013-01-04 02:23:00,1.9,-99.9,25.34,North,-999,0.0,0.0,-999,0.00,,,-99.99,FreeWX 2.04,2013-01-04 09:23:00,
2013-01-04 02:28:00,1.8,-99.9,25.34,North,-999,0.0,0.0,-999,0.00,,,-99.99,FreeWX 2.04,2013-01-04 09:28:00,
2013-01-04 02:33:00,1.2,-99.9,25.34,North,-999,0.0,0.0,-999,0.00,,,-99.99,FreeWX 2.04,2013-01-04 09:33:00,
2013-01-04 02:38:00,2.1,-99.9,25.34,North,-999,0.0,0.0,-999,0.00,,,-99.99,FreeWX 2.04,2013-01-04 09:38:00,
2013-01-04 02:43:00,2.1,-99.9,25.34,North,-999,0.0,0.0,-999,0.00,,,-99.99,FreeWX 2.04,2013-01-04 09:43:00,
2013-01-04 02:48:00,3.4,-99.9,25.34,North,-999,0.0,0.0,-999,0.00,,,-99.99,FreeWX 2.04,2013-01-04 09:48:00,
2013-01-04 02:53:00,3.9,-99.9,25.34,North,-999,0.0,2.7,-999,0.00,,,-99.99,FreeWX 2.04,2013-01-04 09:53:00,
2013-01-04 02:58:00,4.5,-99.9,25.34,North,-999,0.0,3.1,-999,0.00,,,-99.99,FreeWX 2.04,2013-01-04 09:58:00,
2013-01-04 03:03:00,5.0,-99.9,25.34,North,351,1.0,3.6,-999,0.00,,,-99.99,FreeWX 2.04,2013-01-04 10:03:00,
2013-01-04 03:08:00,5.2,-99.9,25.34,North,-999,0.0,0.0,-999,0.00,,,-99.99,FreeWX 2.04,2013-01-04 10:08:00,
2013-01-04 03:13:00,5.5,-99.9,25.34,North,-999,0.0,0.0,-999,0.00,,,-99.99,FreeWX 2.04,2013-01-04 10:13:00,
2013-01-04 03:18:00,6.1,-99.9,25.34,North,-999,0.0,0.0,-999,0.00,,,-99.99,FreeWX 2.04,2013-01-04 10:18:00,
2013-01-04 03:23:00,5.7,-99.9,25.34,North,-999,0.0,4.0,-999,0.00,,,-99.99,FreeWX 2.04,2013-01-04 10:23:00,
2013-01-04 03:28:00,1.6,-99.9,25.34,South,174,2.0,6.9,-999,0.00,,,-99.99,FreeWX 2.04,2013-01-04 10:28:00,
2013-01-04 03:38:00,-0.9,-99.9,25.34,North,-999,0.0,0.0,-999,0.00,,,-99.99,FreeWX 2.04,2013-01-04 10:38:00,
2013-01-04 03:43:00,-0.9,-99.9,25.34,North,-999,0.0,0.0,-999,0.00,,,-99.99,FreeWX 2.04,2013-01-04 10:43:00,
2013-01-04 03:48:00,-1.3,-99.9,25.34,North,-999,0.0,0.0,-999,0.00,,,-99.99,FreeWX 2.04,2013-01-04 10:48:00,
2013-01-04 03:53:00,-1.3,-99.9,25.34,North,-999,0.0,0.0,-999,0.00,,,-99.99,FreeWX 2.04,2013-01-04 10:53:00,
2013-01-04 03:58:00,-1.3,-99.9,25.34,North,-999,0.0,0.0,-999,0.00,,,-99.99,FreeWX 2.04,2013-01-04 10:58:00,
2013-01-04 04:03:00,-1.3,-99.9,25.34,North,-999,0.0,0.0,-999,0.00,,,-99.99,FreeWX 2.04,2013-01-04 11:03:00,
2013-01-04 04:08:00,-1.5,-99.9,25.34,North,-999,0.0,0.0,-999,0.00,,,-99.99,FreeWX 2.04,2013-01-04 11:08:00,
2013-01-04 04:13:00,-1.3,-99.9,25.34,North,-999,0.0,0.0,-999,0.00,,,-99.99,FreeWX 2.04,2013-01-04 11:13:00,
2013-01-04 04:18:00,-0.9,-99.9,25.34,North,-999,0.0,0.0,-999,0.00,,,-99.99,FreeWX 2.04,2013-01-04 11:18:00,
2013-01-04 04:23:00,-0.9,-99.9,25.34,North,-999,0.0,0.0,-999,0.00,,,-99.99,FreeWX 2.04,2013-01-04 11:23:00,
2013-01-04 04:28:00,-0.6,-99.9,25.34,North,-999,0.0,0.0,-999,0.00,,,-99.99,FreeWX 2.04,2013-01-04 11:28:00,
2013-01-04 04:33:00,-0.6,-99.9,25.34,North,-999,0.0,0.0,-999,0.00,,,-99.99,FreeWX 2.04,2013-01-04 11:33:00,
2013-01-04 04:48:00,0.1,-99.9,25.34,North,-999,0.0,0.0,-999,0.00,,,-99.99,FreeWX 2.04,2013-01-04 11:48:00,
2013-01-04 04:53:00,0.3,-99.9,25.34,North,-999,0.0,0.0,-999,0.00,,,-99.99,FreeWX 2.04,2013-01-04 11:53:00,
2013-01-04 04:58:00,0.3,-99.9,25.34,North,-999,0.0,0.0,-999,0.00,,,-99.99,FreeWX 2.04,2013-01-04 11:58:00,
2013-01-04 05:03:00,-0.4,-99.9,25.34,North,-999,0.0,0.0,-999,0.00,,,-99.99,FreeWX 2.04,2013-01-04 12:03:00,
2013-01-04 05:08:00,-0.6,-99.9,25.34,North,-999,0.0,0.0,-999,0.00,,,-99.99,FreeWX 2.04,2013-01-04 12:08:00,
2013-01-04 05:13:00,-0.8,-99.9,25.34,North,-999,0.0,0.0,-999,0.00,,,-99.99,FreeWX 2.04,2013-01-04 12:13:00,
2013-01-04 05:18:00,-0.4,-99.9,25.34,North,-999,0.0,0.0,-999,0.00,,,-99.99,FreeWX 2.04,2013-01-04 12:18:00,
2013-01-04 05:28:00,0.3,-99.9,25.34,North,-999,0.0,0.0,-999,0.00,,,-99.99,FreeWX 2.04,2013-01-04 12:28:00,
2013-01-04 05:33:00,-0.6,-99.9,25.34,North,-999,0.0,0.0,-999,0.00,,,-99.99,FreeWX 2.04,2013-01-04 12:33:00,
2013-01-04 05:38:00,-0.8,-99.9,25.34,North,-999,0.0,0.0,-999,0.00,,,-99.99,FreeWX 2.04,2013-01-04 12:38:00,
2013-01-04 05:43:00,-0.6,-99.9,25.34,North,-999,0.0,0.0,-999,0.00,,,-99.99,FreeWX 2.04,2013-01-04 12:43:00,
2013-01-04 05:48:00,-0.2,-99.9,25.34,North,-999,0.0,0.0,-999,0.00,,,-99.99,FreeWX 2.04,2013-01-04 12:48:00,
2013-01-04 05:58:00,0.3,-99.9,25.34,North,-999,0.0,0.0,-999,0.00,,,-99.99,FreeWX 2.04,2013-01-04 12:58:00,
2013-01-04 06:03:00,0.7,-99.9,25.34,North,-999,0.0,0.0,-999,0.00,,,-99.99,FreeWX 2.04,2013-01-04 13:03:00,
2013-01-04 06:08:00,-0.8,-99.9,25.34,North,-999,0.0,0.0,-999,0.00,,,-99.99,FreeWX 2.04,2013-01-04 13:08:00,
2013-01-04 06:14:00,-0.6,-99.9,25.34,North,-999,0.0,0.0,-999,0.00,,,-99.99,FreeWX 2.04,2013-01-04 13:14:00,
2013-01-04 06:19:00,-1.3,-99.9,25.34,North,-999,0.0,0.0,-999,0.00,,,-99.99,FreeWX 2.04,2013-01-04 13:19:00,
2013-01-04 06:24:00,-1.3,-99.9,25.34,North,-999,0.0,0.0,-999,0.00,,,-99.99,FreeWX 2.04,2013-01-04 13:24:00,
2013-01-04 06:29:00,-0.8,-99.9,25.34,North,-999,0.0,0.0,-999,0.00,,,-99.99,FreeWX 2.04,2013-01-04 13:29:00,
2013-01-04 06:34:00,0.3,-99.9,25.34,North,-999,0.0,0.0,-999,0.00,,,-99.99,FreeWX 2.04,2013-01-04 13:34:00,
2013-01-04 06:39:00,0.1,-99.9,25.34,North,-999,0.0,0.0,-999,0.00,,,-99.99,FreeWX 2.04,2013-01-04 13:39:00,
2013-01-04 06:44:00,-1.3,-99.9,25.34,North,-999,0.0,0.0,-999,0.00,,,-99.99,FreeWX 2.04,2013-01-04 13:44:00,
2013-01-04 06:49:00,-1.7,-99.9,25.34,North,-999,0.0,0.0,-999,0.00,,,-99.99,FreeWX 2.04,2013-01-04 13:49:00,
2013-01-04 06:54:00,-2.2,-99.9,25.34,North,-999,0.0,0.0,-999,0.00,,,-99.99,FreeWX 2.04,2013-01-04 13:54:00,
2013-01-04 06:59:00,-1.8,-99.9,25.34,North,-999,0.0,0.0,-999,0.00,,,-99.99,FreeWX 2.04,2013-01-04 13:59:00,
2013-01-04 07:04:00,-0.9,-99.9,25.34,North,-999,0.0,0.0,-999,0.00,,,-99.99,FreeWX 2.04,2013-01-04 14:04:00,
2013-01-04 07:09:00,0.5,-99.9,25.34,North,-999,0.0,0.0,-999,0.00,,,-99.99,FreeWX 2.04,2013-01-04 14:09:00,
2013-01-04 07:14:00,1.6,-99.9,25.34,North,-999,0.0,0.0,-999,0.00,,,-99.99,FreeWX 2.04,2013-01-04 14:14:00,
2013-01-04 07:19:00,-0.4,-99.9,25.34,North,-999,0.0,0.0,-999,0.00,,,-99.99,FreeWX 2.04,2013-01-04 14:19:00,
2013-01-04 07:24:00,-0.9,-99.9,25.34,North,-999,0.0,0.0,-999,0.00,,,-99.99,FreeWX 2.04,2013-01-04 14:24:00,
2013-01-04 07:29:00,-2.0,-99.9,25.34,North,-999,0.0,2.7,-999,0.00,,,-99.99,FreeWX 2.04,2013-01-04 14:29:00,
2013-01-04 07:34:00,-1.8,-99.9,25.34,North,-999,0.0,0.0,-999,0.00,,,-99.99,FreeWX 2.04,2013-01-04 14:34:00,
2013-01-04 07:39:00,-1.3,-99.9,25.34,North,-999,0.0,0.0,-999,0.00,,,-99.99,FreeWX 2.04,2013-01-04 14:39:00,
2013-01-04 07:44:00,-0.4,-99.9,25.34,North,-999,0.0,0.0,-999,0.00,,,-99.99,FreeWX 2.04,2013-01-04 14:44:00,
2013-01-04 07:49:00,-0.6,-99.9,25.34,North,-999,0.0,0.0,-999,0.00,,,-99.99,FreeWX 2.04,2013-01-04 14:49:00,
2013-01-04 07:54:00,-0.6,-99.9,25.34,North,-999,0.0,0.0,-999,0.00,,,-99.99,FreeWX 2.04,2013-01-04 14:54:00,
2013-01-04 07:59:00,-1.1,-99.9,25.34,North,-999,0.0,2.7,-999,0.00,,,-99.99,FreeWX 2.04,2013-01-04 14:59:00,
2013-01-04 08:04:00,-1.3,-99.9,25.34,North,-999,0.0,0.0,-999,0.00,,,-99.99,FreeWX 2.04,2013-01-04 15:04:00,
2013-01-04 08:09:00,-1.1,-99.9,25.34,North,-999,0.0,0.0,-999,0.00,,,-99.99,FreeWX 2.04,2013-01-04 15:09:00,
2013-01-04 09:44:00,21.2,-99.9,25.37,North,-999,0.0,0.0,-999,0.00,,,-99.99,FreeWX 2.04,2013-01-04 16:44:00,
2013-01-04 09:54:00,21.2,-99.9,25.37,North,-999,0.0,0.0,-999,0.00,,,-99.99,FreeWX 2.04,2013-01-04 16:54:00,
2013-01-04 10:14:00,21.2,-99.9,25.37,North,-999,0.0,0.0,-999,0.00,,,-99.99,FreeWX 2.04,2013-01-04 17:14:00,
2013-01-04 10:29:00,21.2,-99.9,25.37,North,-999,0.0,0.0,-999,0.00,,,-99.99,FreeWX 2.04,2013-01-04 17:29:00,
2013-01-04 10:34:00,21.2,-99.9,25.37,North,-999,0.0,0.0,-999,0.00,,,-99.99,FreeWX 2.04,2013-01-04 17:34:00,
2013-01-04 10:39:00,21.2,-99.9,25.37,North,-999,0.0,0.0,-999,0.00,,,-99.99,FreeWX 2.04,2013-01-04 17:39:00,
2013-01-04 10:45:00,21.2,-99.9,25.37,North,-999,0.0,0.0,-999,0.00,,,-99.99,FreeWX 2.04,2013-01-04 17:45:00,
2013-01-04 11:00:00,21.2,-99.9,25.37,North,-999,0.0,0.0,-999,0.00,,,-99.99,FreeWX 2.04,2013-01-04 18:00:00,
2013-01-04 11:05:00,21.2,-99.9,25.37,North,-999,0.0,0.0,-999,0.00,,,-99.99,FreeWX 2.04,2013-01-04 18:05:00,
2013-01-04 11:15:00,15.6,0.3,25.34,North,-999,0.0,0.0,50,0.00,,,-99.99,FreeWX 2.04,2013-01-04 18:15:00,
2013-01-04 11:20:00,15.8,0.1,25.34,North,-999,0.0,0.0,49,0.00,,,-99.99,FreeWX 2.04,2013-01-04 18:20:00,
2013-01-04 11:25:00,15.1,-1.5,25.34,North,-999,0.0,0.0,47,0.00,,,-99.99,FreeWX 2.04,2013-01-04 18:25:00,
2013-01-04 11:30:00,15.8,-0.8,25.34,North,-999,0.0,0.0,47,0.00,,,-99.99,FreeWX 2.04,2013-01-04 18:30:00,
2013-01-04 11:35:00,14.4,-2.2,25.34,North,-999,0.0,0.0,47,0.00,,,-99.99,FreeWX 2.04,2013-01-04 18:35:00,
2013-01-04 11:40:00,13.1,-99.9,25.34,WSW,250,1.0,7.4,-999,0.00,,,-99.99,FreeWX 2.04,2013-01-04 18:40:00,
2013-01-04 12:00:00,13.1,-99.9,25.31,West,266,5.0,6.7,-999,0.00,,,-99.99,FreeWX 2.04,2013-01-04 19:00:00,
2013-01-04 12:05:00,13.1,-99.9,25.31,West,263,5.0,6.3,-999,0.00,,,-99.99,FreeWX 2.04,2013-01-04 19:05:00,
2013-01-04 12:10:00,13.3,-99.9,25.31,West,262,5.0,6.7,-999,0.00,,,-99.99,FreeWX 2.04,2013-01-04 19:10:00,
2013-01-04 12:15:00,13.3,-99.9,25.31,West,262,5.0,6.9,-999,0.00,,,-99.99,FreeWX 2.04,2013-01-04 19:15:00,
2013-01-04 12:20:00,13.6,-99.9,25.31,WSW,258,5.0,6.3,-999,0.00,,,-99.99,FreeWX 2.04,2013-01-04 19:20:00,
2013-01-04 12:25:00,14.0,-0.8,25.31,WSW,251,4.0,6.3,51,0.00,,,-99.99,FreeWX 2.04,2013-01-04 19:25:00,
2013-01-04 12:30:00,14.4,-0.4,25.31,WSW,243,4.0,6.3,51,0.00,,,-99.99,FreeWX 2.04,2013-01-04 19:30:00,
2013-01-04 12:35:00,14.7,0.3,25.31,SW,234,4.0,6.3,52,0.00,,,-99.99,FreeWX 2.04,2013-01-04 19:35:00,
2013-01-04 12:40:00,14.7,-0.6,25.31,SSW,212,5.0,6.7,50,0.00,,,-99.99,FreeWX 2.04,2013-01-04 19:40:00,
2013-01-04 12:45:00,14.4,-1.7,25.28,South,189,5.0,6.7,48,0.00,,,-99.99,FreeWX 2.04,2013-01-04 19:45:00,
2013-01-04 12:50:00,14.7,-0.9,25.28,South,179,5.0,6.3,49,0.00,,,-99.99,FreeWX 2.04,2013-01-04 19:50:00,
2013-01-04 12:55:00,14.9,-0.8,25.28,South,181,4.0,5.8,49,0.00,,,-99.99,FreeWX 2.04,2013-01-04 19:55:00,
2013-01-04 13:00:00,15.1,-0.6,25.28,SSW,212,4.0,6.3,49,0.00,,,-99.99,FreeWX 2.04,2013-01-04 20:00:00,
2013-01-04 13:05:00,14.9,-1.7,25.28,SSW,210,4.0,6.9,47,0.00,,,-99.99,FreeWX 2.04,2013-01-04 20:05:00,
2013-01-04 13:10:00,15.3,-0.9,25.28,South,189,4.0,5.8,48,0.00,,,-99.99,FreeWX 2.04,2013-01-04 20:10:00,
2013-01-04 13:15:00,15.1,-1.5,25.28,South,185,4.0,6.3,47,0.00,,,-99.99,FreeWX 2.04,2013-01-04 20:15:00,
2013-01-04 13:20:00,15.1,-1.5,25.28,South,182,4.0,6.7,47,0.00,,,-99.99,FreeWX 2.04,2013-01-04 20:20:00,
2013-01-04 13:25:00,15.3,-1.3,25.28,South,189,4.0,6.3,47,0.00,,,-99.99,FreeWX 2.04,2013-01-04 20:25:00,
2013-01-04 13:30:00,15.6,-0.9,25.25,South,183,4.0,6.3,47,0.00,,,-99.99,FreeWX 2.04,2013-01-04 20:30:00,
2013-01-04 13:35:00,15.6,-1.5,25.25,South,182,4.0,6.3,46,0.00,,,-99.99,FreeWX 2.04,2013-01-04 20:35:00,
2013-01-04 13:40:00,15.8,-1.3,25.25,South,182,4.0,5.4,46,0.00,,,-99.99,FreeWX 2.04,2013-01-04 20:40:00,
2013-01-04 13:45:00,15.8,-1.3,25.25,South,174,4.0,5.8,46,0.00,,,-99.99,FreeWX 2.04,2013-01-04 20:45:00,
2013-01-04 13:50:00,16.0,-1.1,25.25,South,174,4.0,5.8,46,0.00,,,-99.99,FreeWX 2.04,2013-01-04 20:50:00,
2013-01-04 13:55:00,16.3,-0.8,25.25,South,177,4.0,4.9,46,0.00,,,-99.99,FreeWX 2.04,2013-01-04 20:55:00,
2013-01-04 14:00:00,16.7,-0.9,25.25,South,177,3.0,4.5,45,0.00,,,-99.99,FreeWX 2.04,2013-01-04 21:00:00,
2013-01-04 14:05:00,16.9,-0.8,25.25,South,177,3.0,4.5,45,0.00,,,-99.99,FreeWX 2.04,2013-01-04 21:05:00,
2013-01-04 14:10:00,16.7,-0.9,25.25,South,177,3.0,4.9,45,0.00,,,-99.99,FreeWX 2.04,2013-01-04 21:10:00,
2013-01-04 14:15:00,16.0,-1.5,25.25,SSW,200,4.0,6.3,45,0.00,,,-99.99,FreeWX 2.04,2013-01-04 21:15:00,
2013-01-04 14:20:00,16.2,-0.9,25.25,WSW,239,4.0,5.8,46,0.00,,,-99.99,FreeWX 2.04,2013-01-04 21:20:00,
2013-01-04 14:25:00,16.7,-0.9,25.25,SW,220,3.0,5.4,45,0.00,,,-99.99,FreeWX 2.04,2013-01-04 21:25:00,
2013-01-04 14:30:00,16.9,-1.3,25.25,South,177,4.0,6.3,44,0.00,,,-99.99,FreeWX 2.04,2013-01-04 21:30:00,
2013-01-04 14:35:00,17.1,-1.1,25.25,South,172,4.0,6.3,44,0.00,,,-99.99,FreeWX 2.04,2013-01-04 21:35:00,
2013-01-04 14:40:00,16.9,-1.3,25.25,SSE,159,5.0,8.3,44,0.00,,,-99.99,FreeWX 2.04,2013-01-04 21:40:00,
2013-01-04 14:45:00,17.2,-0.9,25.25,SE,146,5.0,7.8,44,0.00,,,-99.99,FreeWX 2.04,2013-01-04 21:45:00,
2013-01-04 14:50:00,17.4,-0.8,25.25,SE,143,4.0,6.7,44,0.00,,,-99.99,FreeWX 2.04,2013-01-04 21:50:00,
2013-01-04 14:55:00,17.4,-0.8,25.25,SSE,154,4.0,5.8,44,0.00,,,-99.99,FreeWX 2.04,2013-01-04 21:55:00,
2013-01-04 15:00:00,17.4,-0.8,25.25,South,170,4.0,5.8,44,0.00,,,-99.99,FreeWX 2.04,2013-01-04 22:00:00,
2013-01-04 15:05:00,18.0,-0.2,25.25,SSE,168,4.0,5.4,44,0.00,,,-99.99,FreeWX 2.04,2013-01-04 22:05:00,
2013-01-04 15:10:00,17.1,-1.5,25.25,SSE,167,4.0,6.9,43,0.00,,,-99.99,FreeWX 2.04,2013-01-04 22:10:00,
2013-01-04 15:15:00,16.7,-1.3,25.25,SSE,167,5.0,6.9,44,0.00,,,-99.99,FreeWX 2.04,2013-01-04 22:15:00,
2013-01-04 15:20:00,17.1,-1.1,25.25,SSE,162,5.0,6.9,44,0.00,,,-99.99,FreeWX 2.04,2013-01-04 22:20:00,
2013-01-04 15:25:00,17.2,-0.9,25.25,SSE,157,5.0,6.7,44,0.00,,,-99.99,FreeWX 2.04,2013-01-04 22:25:00,
2013-01-04 15:30:00,17.2,-0.9,25.25,SSE,154,5.0,6.7,44,0.00,,,-99.99,FreeWX 2.04,2013-01-04 22:30:00,
2013-01-04 15:35:00,17.4,-1.1,25.25,SSE,147,4.0,6.3,43,0.00,,,-99.99,FreeWX 2.04,2013-01-04 22:35:00,
2013-01-04 15:40:00,17.1,-1.5,25.25,SSE,152,4.0,6.9,43,0.00,,,-99.99,FreeWX 2.04,2013-01-04 22:40:00,
2013-01-04 15:45:00,16.9,-1.7,25.25,SSE,161,5.0,7.4,43,0.00,,,-99.99,FreeWX 2.04,2013-01-04 22:45:00,
2013-01-04 15:50:00,17.2,-1.3,25.25,SSE,156,4.0,5.8,43,0.00,,,-99.99,FreeWX 2.04,2013-01-04 22:50:00,
2013-01-04 15:55:00,17.8,-0.9,25.25,SE,136,4.0,5.4,43,0.00,,,-99.99,FreeWX 2.04,2013-01-04 22:55:00,
2013-01-04 16:01:00,18.0,-1.3,25.25,ESE,111,4.0,5.4,42,0.00,,,-99.99,FreeWX 2.04,2013-01-04 23:01:00,
2013-01-04 16:06:00,18.0,-1.7,25.25,East,100,4.0,5.4,41,0.00,,,-99.99,FreeWX 2.04,2013-01-04 23:06:00,
2013-01-04 16:11:00,17.1,-2.6,25.25,East,98,3.0,4.5,41,0.00,,,-99.99,FreeWX 2.04,2013-01-04 23:11:00,
2013-01-04 16:16:00,16.0,-3.1,25.25,ESE,105,3.0,4.9,42,0.00,,,-99.99,FreeWX 2.04,2013-01-04 23:16:00,
2013-01-04 16:21:00,14.5,-3.3,25.25,ESE,120,3.0,5.8,44,0.00,,,-99.99,FreeWX 2.04,2013-01-04 23:21:00,
2013-01-04 16:26:00,13.5,-99.9,25.25,SSE,151,4.0,5.8,-999,0.00,,,-99.99,FreeWX 2.04,2013-01-04 23:26:00,
2013-01-04 16:31:00,12.6,-99.9,25.25,South,172,5.0,6.3,-999,0.00,,,-99.99,FreeWX 2.04,2013-01-04 23:31:00,
2013-01-04 16:36:00,12.0,-99.9,25.25,South,174,5.0,6.3,-999,0.00,,,-99.99,FreeWX 2.04,2013-01-04 23:36:00,
2013-01-04 16:41:00,11.7,-99.9,25.25,South,169,4.0,6.3,-999,0.00,,,-99.99,FreeWX 2.04,2013-01-04 23:41:00,
2013-01-04 16:46:00,11.1,-99.9,25.25,SSE,164,4.0,6.3,-999,0.00,,,-99.99,FreeWX 2.04,2013-01-04 23:46:00,
2013-01-04 16:51:00,10.8,-99.9,25.25,SSE,168,4.0,5.8,-999,0.00,,,-99.99,FreeWX 2.04,2013-01-04 23:51:00,
2013-01-04 16:56:00,10.4,-99.9,25.25,South,172,4.0,6.3,-999,0.00,,,-99.99,FreeWX 2.04,2013-01-04 23:56:00,
2013-01-04 17:01:00,10.2,-99.9,25.25,South,172,4.0,5.8,-999,0.00,,,-99.99,FreeWX 2.04,2013-01-05 00:01:00,
2013-01-04 17:06:00,10.4,-99.9,25.25,South,171,3.0,3.6,-999,0.00,,,-99.99,FreeWX 2.04,2013-01-05 00:06:00,
2013-01-04 17:11:00,10.8,-99.9,25.25,South,171,2.0,4.0,-999,0.00,,,-99.99,FreeWX 2.04,2013-01-05 00:11:00,
2013-01-04 17:16:00,10.4,-99.9,25.25,South,171,2.0,3.6,-999,0.00,,,-99.99,FreeWX 2.04,2013-01-05 00:16:00,
2013-01-04 17:21:00,10.2,-99.9,25.25,North,-999,0.0,3.1,-999,0.00,,,-99.99,FreeWX 2.04,2013-01-05 00:21:00,
2013-01-04 17:26:00,10.2,-99.9,25.25,South,171,1.0,3.1,-999,0.00,,,-99.99,FreeWX 2.04,2013-01-05 00:26:00,
2013-01-04 17:31:00,9.5,-99.9,25.25,South,171,1.0,3.1,-999,0.00,,,-99.99,FreeWX 2.04,2013-01-05 00:31:00,
2013-01-04 17:36:00,8.6,-99.9,25.25,South,171,2.0,4.5,-999,0.00,,,-99.99,FreeWX 2.04,2013-01-05 00:36:00,
2013-01-04 17:41:00,8.4,-99.9,25.25,South,172,3.0,6.3,-999,0.00,,,-99.99,FreeWX 2.04,2013-01-05 00:41:00,
2013-01-04 17:46:00,8.8,-99.9,25.25,South,176,4.0,6.3,-999,0.00,,,-99.99,FreeWX 2.04,2013-01-05 00:46:00,
2013-01-04 17:51:00,9.0,-99.9,25.25,South,177,4.0,4.5,-999,0.00,,,-99.99,FreeWX 2.04,2013-01-05 00:51:00,
2013-01-04 17:56:00,8.8,-99.9,25.25,South,176,3.0,4.0,-999,0.00,,,-99.99,FreeWX 2.04,2013-01-05 00:56:00,
2013-01-04 18:01:00,8.6,-99.9,25.28,South,176,2.0,3.1,-999,0.00,,,-99.99,FreeWX 2.04,2013-01-05 01:01:00,
2013-01-04 18:06:00,8.2,-99.9,25.28,North,-999,0.0,0.0,-999,0.00,,,-99.99,FreeWX 2.04,2013-01-05 01:06:00,
2013-01-04 18:11:00,7.9,-99.9,25.28,North,-999,0.0,0.0,-999,0.00,,,-99.99,FreeWX 2.04,2013-01-05 01:11:00,
2013-01-04 18:16:00,7.5,-99.9,25.28,North,-999,0.0,4.9,-999,0.00,,,-99.99,FreeWX 2.04,2013-01-05 01:16:00,
2013-01-04 18:21:00,7.5,-99.9,25.28,SE,136,3.0,5.8,-999,0.00,,,-99.99,FreeWX 2.04,2013-01-05 01:21:00,
2013-01-04 18:26:00,7.7,-99.9,25.28,East,80,5.0,6.3,-999,0.00,,,-99.99,FreeWX 2.04,2013-01-05 01:26:00,
2013-01-04 18:31:00,7.9,-99.9,25.25,ENE,62,4.0,5.8,-999,0.00,,,-99.99,FreeWX 2.04,2013-01-05 01:31:00,
2013-01-04 18:36:00,8.4,-99.9,25.25,ENE,58,4.0,5.4,-999,0.00,,,-99.99,FreeWX 2.04,2013-01-05 01:36:00,
2013-01-04 18:41:00,8.4,-99.9,25.25,ENE,58,4.0,4.9,-999,0.00,,,-99.99,FreeWX 2.04,2013-01-05 01:41:00,
2013-01-04 18:46:00,8.1,-99.9,25.28,ENE,58,2.0,3.1,-999,0.00,,,-99.99,FreeWX 2.04,2013-01-05 01:46:00,
2013-01-04 18:51:00,7.9,-99.9,25.28,North,-999,0.0,0.0,-999,0.00,,,-99.99,FreeWX 2.04,2013-01-05 01:51:00,
2013-01-04 18:56:00,7.9,-99.9,25.28,North,-999,0.0,0.0,-999,0.00,,,-99.99,FreeWX 2.04,2013-01-05 01:56:00,
2013-01-04 19:01:00,7.2,-99.9,25.28,North,-999,0.0,0.0,-999,0.00,,,-99.99,FreeWX 2.04,2013-01-05 02:01:00,
2013-01-04 19:06:00,7.0,-99.9,25.28,North,-999,0.0,3.6,-999,0.00,,,-99.99,FreeWX 2.04,2013-01-05 02:06:00,
2013-01-04 19:11:00,6.1,-99.9,25.28,North,-999,0.0,0.0,-999,0.00,,,-99.99,FreeWX 2.04,2013-01-05 02:11:00,
2013-01-04 19:16:00,7.3,-99.9,25.28,ENE,58,1.0,4.9,-999,0.00,,,-99.99,FreeWX 2.04,2013-01-05 02:16:00,
2013-01-04 19:21:00,7.5,-99.9,25.28,ENE,58,3.0,4.5,-999,0.00,,,-99.99,FreeWX 2.04,2013-01-05 02:21:00,
2013-01-04 19:26:00,6.8,-99.9,25.28,ENE,58,3.0,4.0,-999,0.00,,,-99.99,FreeWX 2.04,2013-01-05 02:26:00,
2013-01-04 19:31:00,7.0,-99.9,25.28,ENE,58,2.0,3.6,-999,0.00,,,-99.99,FreeWX 2.04,2013-01-05 02:31:00,
2013-01-04 19:36:00,6.8,-99.9,25.28,ENE,58,1.0,0.0,-999,0.00,,,-99.99,FreeWX 2.04,2013-01-05 02:36:00,
2013-01-04 19:41:00,6.1,-99.9,25.28,North,-999,0.0,0.0,-999,0.00,,,-99.99,FreeWX 2.04,2013-01-05 02:41:00,
2013-01-04 19:46:00,5.9,-99.9,25.28,North,-999,0.0,0.0,-999,0.00,,,-99.99,FreeWX 2.04,2013-01-05 02:46:00,
2013-01-04 19:51:00,6.6,-99.9,25.28,North,-999,0.0,0.0,-999,0.00,,,-99.99,FreeWX 2.04,2013-01-05 02:51:00,
2013-01-04 19:56:00,7.0,-99.9,25.28,North,-999,0.0,0.0,-999,0.00,,,-99.99,FreeWX 2.04,2013-01-05 02:56:00,
2013-01-04 20:01:00,6.8,-99.9,25.28,North,-999,0.0,0.0,-999,0.00,,,-99.99,FreeWX 2.04,2013-01-05 03:01:00,
2013-01-04 20:06:00,6.6,-99.9,25.28,North,-999,0.0,0.0,-999,0.00,,,-99.99,FreeWX 2.04,2013-01-05 03:06:00,
2013-01-04 20:11:00,5.5,-99.9,25.28,North,-999,0.0,0.0,-999,0.00,,,-99.99,FreeWX 2.04,2013-01-05 03:11:00,
2013-01-04 20:17:00,5.0,-99.9,25.28,North,-999,0.0,0.0,-999,0.00,,,-99.99,FreeWX 2.04,2013-01-05 03:17:00,
2013-01-04 20:22:00,5.5,-99.9,25.28,North,-999,0.0,0.0,-999,0.00,,,-99.99,FreeWX 2.04,2013-01-05 03:22:00,
2013-01-04 20:27:00,5.2,-99.9,25.28,North,-999,0.0,0.0,-999,0.00,,,-99.99,FreeWX 2.04,2013-01-05 03:27:00,
2013-01-04 20:32:00,6.1,-99.9,25.28,North,-999,0.0,0.0,-999,0.00,,,-99.99,FreeWX 2.04,2013-01-05 03:32:00,
2013-01-04 20:37:00,7.2,-99.9,25.28,North,-999,0.0,0.0,-999,0.00,,,-99.99,FreeWX 2.04,2013-01-05 03:37:00,
2013-01-04 20:42:00,7.0,-99.9,25.28,North,-999,0.0,0.0,-999,0.00,,,-99.99,FreeWX 2.04,2013-01-05 03:42:00,
2013-01-04 20:47:00,6.8,-99.9,25.28,North,-999,0.0,0.0,-999,0.00,,,-99.99,FreeWX 2.04,2013-01-05 03:47:00,
2013-01-04 20:52:00,6.6,-99.9,25.28,North,-999,0.0,0.0,-999,0.00,,,-99.99,FreeWX 2.04,2013-01-05 03:52:00,
2013-01-04 20:57:00,6.3,-99.9,25.28,North,-999,0.0,0.0,-999,0.00,,,-99.99,FreeWX 2.04,2013-01-05 03:57:00,
2013-01-04 21:02:00,7.0,-99.9,25.28,North,-999,0.0,0.0,-999,0.00,,,-99.99,FreeWX 2.04,2013-01-05 04:02:00,
2013-01-04 21:07:00,7.2,-99.9,25.28,North,-999,0.0,0.0,-999,0.00,,,-99.99,FreeWX 2.04,2013-01-05 04:07:00,
2013-01-04 21:12:00,7.7,-99.9,25.28,North,-999,0.0,0.0,-999,0.00,,,-99.99,FreeWX 2.04,2013-01-05 04:12:00,
2013-01-04 21:17:00,7.7,-99.9,25.28,North,-999,0.0,3.1,-999,0.00,,,-99.99,FreeWX 2.04,2013-01-05 04:17:00,
2013-01-04 21:22:00,7.3,-99.9,25.28,North,-999,0.0,3.6,-999,0.00,,,-99.99,FreeWX 2.04,2013-01-05 04:22:00,
2013-01-04 21:27:00,7.5,-99.9,25.28,North,-999,0.0,0.0,-999,0.00,,,-99.99,FreeWX 2.04,2013-01-05 04:27:00,
2013-01-04 21:32:00,7.3,-99.9,25.28,North,-999,0.0,0.0,-999,0.00,,,-99.99,FreeWX 2.04,2013-01-05 04:32:00,
2013-01-04 21:37:00,7.5,-99.9,25.28,North,-999,0.0,0.0,-999,0.00,,,-99.99,FreeWX 2.04,2013-01-05 04:37:00,
2013-01-04 21:42:00,7.5,-99.9,25.28,North,-999,0.0,0.0,-999,0.00,,,-99.99,FreeWX 2.04,2013-01-05 04:42:00,
2013-01-04 21:47:00,6.6,-99.9,25.28,North,-999,0.0,0.0,-999,0.00,,,-99.99,FreeWX 2.04,2013-01-05 04:47:00,
2013-01-04 21:52:00,5.4,-99.9,25.28,North,-999,0.0,0.0,-999,0.00,,,-99.99,FreeWX 2.04,2013-01-05 04:52:00,
2013-01-04 21:57:00,4.5,-99.9,25.28,North,-999,0.0,0.0,-999,0.00,,,-99.99,FreeWX 2.04,2013-01-05 04:57:00,
2013-01-04 22:02:00,4.8,-99.9,25.28,North,-999,0.0,0.0,-999,0.00,,,-99.99,FreeWX 2.04,2013-01-05 05:02:00,
2013-01-04 22:07:00,4.6,-99.9,25.28,North,-999,0.0,0.0,-999,0.00,,,-99.99,FreeWX 2.04,2013-01-05 05:07:00,
2013-01-04 22:12:00,4.6,-99.9,25.28,North,-999,0.0,0.0,-999,0.00,,,-99.99,FreeWX 2.04,2013-01-05 05:12:00,
2013-01-04 22:17:00,5.0,-99.9,25.28,North,-999,0.0,0.0,-999,0.00,,,-99.99,FreeWX 2.04,2013-01-05 05:17:00,
2013-01-04 22:22:00,5.5,-99.9,25.28,North,-999,0.0,0.0,-999,0.00,,,-99.99,FreeWX 2.04,2013-01-05 05:22:00,
2013-01-04 22:27:00,5.5,-99.9,25.28,North,-999,0.0,0.0,-999,0.00,,,-99.99,FreeWX 2.04,2013-01-05 05:27:00,
2013-01-04 22:32:00,6.1,-99.9,25.28,North,-999,0.0,0.0,-999,0.00,,,-99.99,FreeWX 2.04,2013-01-05 05:32:00,
2013-01-04 22:37:00,5.5,-99.9,25.28,North,-999,0.0,3.6,-999,0.00,,,-99.99,FreeWX 2.04,2013-01-05 05:37:00,
2013-01-04 22:42:00,5.9,-99.9,25.28,ENE,58,1.0,4.0,-999,0.00,,,-99.99,FreeWX 2.04,2013-01-05 05:42:00,
2013-01-04 22:47:00,5.4,-99.9,25.28,North,-999,0.0,0.0,-999,0.00,,,-99.99,FreeWX 2.04,2013-01-05 05:47:00,
2013-01-04 22:52:00,4.1,-99.9,25.28,North,-999,0.0,4.9,-999,0.00,,,-99.99,FreeWX 2.04,2013-01-05 05:52:00,
2013-01-04 22:57:00,3.9,-99.9,25.28,North,-999,0.0,0.0,-999,0.00,,,-99.99,FreeWX 2.04,2013-01-05 05:57:00,
2013-01-04 23:02:00,3.4,-99.9,25.31,North,-999,0.0,0.0,-999,0.00,,,-99.99,FreeWX 2.04,2013-01-05 06:02:00,
2013-01-04 23:07:00,3.6,-99.9,25.31,North,-999,0.0,0.0,-999,0.00,,,-99.99,FreeWX 2.04,2013-01-05 06:07:00,
2013-01-04 23:12:00,4.1,-99.9,25.31,North,-999,0.0,0.0,-999,0.00,,,-99.99,FreeWX 2.04,2013-01-05 06:12:00,
2013-01-04 23:17:00,4.5,-99.9,25.31,North,-999,0.0,0.0,-999,0.00,,,-99.99,FreeWX 2.04,2013-01-05 06:17:00,
2013-01-04 23:22:00,3.0,-99.9,25.31,North,-999,0.0,0.0,-999,0.00,,,-99.99,FreeWX 2.04,2013-01-05 06:22:00,
2013-01-04 23:27:00,3.4,-99.9,25.31,North,-999,0.0,0.0,-999,0.00,,,-99.99,FreeWX 2.04,2013-01-05 06:27:00,
2013-01-04 23:32:00,3.6,-99.9,25.31,North,-999,0.0,0.0,-999,0.00,,,-99.99,FreeWX 2.04,2013-01-05 06:32:00,
2013-01-04 23:37:00,4.3,-99.9,25.31,North,-999,0.0,0.0,-999,0.00,,,-99.99,FreeWX 2.04,2013-01-05 06:37:00,
2013-01-04 23:42:00,4.5,-99.9,25.31,North,-999,0.0,0.0,-999,0.00,,,-99.99,FreeWX 2.04,2013-01-05 06:42:00,
2013-01-04 23:47:00,5.0,-99.9,25.31,North,-999,0.0,0.0,-999,0.00,,,-99.99,FreeWX 2.04,2013-01-05 06:47:00,
2013-01-04 23:52:00,4.6,-99.9,25.31,North,-999,0.0,0.0,-999,0.00,,,-99.99,FreeWX 2.04,2013-01-05 06:52:00,
2013-01-04 23:57:00,4.6,-99.9,25.31,North,-999,0.0,0.0,-999,0.00,,,-99.99,FreeWX 2.04,2013-01-05 06:57:00,